Regional Weather Roundup
Issued by NWS

Home | Current Version | Previous Version | Text Only | Print | Product List | Glossary On
Versions: 1 2 3 4 5 6 7 8 9 10 11 12 13 14 15 16 17 18 19 20 21 22 23 24 25 26 27 28 29 30 31 32 33 34 35 36 37 38 39 40 41 42 43 44 45 46 47 48 49 50
000
ASUS43 KTOP 241308
RWRKS

WEATHER ROUNDUP FOR KANSAS
NATIONAL WEATHER SERVICE GOODLAND KS
800 AM CDT WED AUG 24 2016

NOTE:  "FAIR" INDICATES FEW OR NO CLOUDS BELOW 12,000 FEET WITH NO
SIGNIFICANT WEATHER AND/OR OBSTRUCTIONS TO VISIBILITY.

KSZ001>006-013>018-027>032-041>047-241400-
NORTHWEST KANSAS

CITY           SKY/WX    TMP DP  RH WIND       PRES   REMARKS
GOODLAND       CLOUDY    62  46  55 N9        30.10R
HAYS           CLOUDY    72  52  49 N10       29.96S
HILL CITY      CLOUDY    67  53  61 N22G29    30.01R
RUSSELL        CLOUDY    70  60  70 NW12      29.93R
$$

KSZ061>065-074>080-084>089-241400-
SOUTHWEST KANSAS

CITY           SKY/WX    TMP DP  RH WIND       PRES   REMARKS
DODGE CITY     PTSUNNY   75  63  66 SW17G25   29.98R
ELKHART          N/A     65  50  58 SW6         N/A
GARDEN CITY    CLOUDY    70  58  65 S6        30.00R
GREAT BEND     PTSUNNY   73  61  64 S12       29.97R
LIBERAL        CLOUDY    70  63  78 SW13      30.05R
PRATT          CLOUDY    73  59  61 S13       30.01S
$$

KSZ066>073-081>083-090>101-241400-
SOUTHEAST KANSAS

CITY           SKY/WX    TMP DP  RH WIND       PRES   REMARKS
CHANUTE        CLOUDY    79  71  76 S13       29.98F
COFFEYVILLE    CLOUDY    79  71  76 S12       30.00F
HUTCHINSON     CLOUDY    76  66  71 S13       29.98R THUNDER
MEDICINE LODGE   N/A     68  64  87 VRB3      29.98S
NEWTON         CLOUDY    76  68  76 SW16      29.99R
PARSONS        CLOUDY    77  71  82 S7        30.01S
WICHITA INTL   CLOUDY    75  67  76 S9        29.98R
WICHITA JABRA  PTSUNNY   76  68  76 S10       29.98S
WICHITA MCCONL CLOUDY    75  67  77 SW10      29.99R
WINFIELD       CLOUDY    78  68  71 S12       30.00R
$$

KSZ007>012-019>026-033>040-048>060-102>105-241400-
NORTHEAST KANSAS

CITY           SKY/WX    TMP DP  RH WIND       PRES   REMARKS
CONCORDIA      MOSUNNY   72  66  81 CALM      29.91R
EMPORIA        CLOUDY    75  71  87 CALM      30.00R
LAWRENCE       SUNNY     71  68  90 SE9       29.96S
MANHATTAN      PTSUNNY   74  69  85 S9        29.91F
MARYSVILLE     MOSUNNY   68  64  88 NE5       29.95R
OLATHE IND     MOSUNNY   71  69  93 S12       29.98F
OLATHE EXE     MOSUNNY   69  67  93 S12       29.98F
SALINA         CLOUDY    79  65  62 S9        29.93R
TOPEKA BILLARD CLOUDY    73  67  81 SE7       29.93F
TOPEKA FORBES  LGT RAIN  74  68  81 S10       29.94F
$$




USA.gov is the U.S. government's official web portal to all federal, state and local government web resources and services.